Home > Weather > Bendigo > Past weeks

Flag for Australia Past Weather in Bendigo, Victoria, Australia — Yesterday and Last 2 Weeks

Now
36 °F

Chilly.


Feels Like: 34 °F
Forecast: 36 / 54 °F
Wind: 3 mph from South

Location: Bendigo Airport Aws

Current Time: May 31, 2016 at 12:35:12 AM

Latest Report: May 30, 2016 at 11:00 PM


Visibility: N/A

Pressure: 30.37 "Hg

Humidity: 93%

Dew Point: 35 °F

Location of BendigoLocation

Past Weather in Bendigo — Graph

°F

Bendigo Temperature Yesterday

Maximum temperature yesterday: 54 °F (at 3:00 PM)
Minimum temperature yesterday: 36 °F (at 11:00 PM)
Average temperature yesterday: 43 °F

High & Low Weather Summary for the Past Weeks

 TemperatureHumidityPressure
High68 °F (May 22, 3:00 PM)97% (May 25, 9:00 AM)30.37 "Hg (May 25, 9:00 AM)
Low36 °F (May 30, 11:00 PM)49% (May 23, 3:00 PM)29.63 "Hg (May 26, 12:00 PM)
Average51 °F80%30.03 "Hg
* Reported May 16 12:00 AM — May 30 11:00 PM, Bendigo, Weather by CustomWeather, © 2016

Note: Actual official high and low records may vary slightly from our data, if they occured in-between our weather recording intervals... More about our weather records

Advertising

Bendigo Weather History for the Previous 24 Hours

Scroll right to see more
 ConditionsComfort  
Time TempWeatherWind HumidityBarometerVisibility
11:00 PM
Mon, May 30
36 °FChilly.3 mph93%30.37 "HgN/A
9:00 PM37 °FChilly.No wind91%30.36 "HgN/A
8:00 PM39 °FChilly.No wind90%30.34 "HgN/A
6:00 PM44 °FQuite cool.No wind77%30.32 "HgN/A
5:00 PM49 °FCool.6 mph64%30.29 "HgN/A
3:00 PM54 °FOvercast.6 mph60%30.28 "HgN/A
2:00 PM53 °FCool.5 mph56%30.28 "HgN/A
12:00 PM51 °FPassing clouds.7 mph59%30.31 "HgN/A
11:00 AM51 °FCool.3 mph62%30.32 "HgN/A
9:00 AM44 °FQuite cool.3 mph77%30.32 "HgN/A
8:00 AM38 °FChilly.No wind94%30.30 "HgN/A
6:00 AM37 °FChilly.No wind93%30.27 "HgN/A
5:00 AM41 °FQuite cool.No wind89%30.25 "HgN/A
3:00 AM42 °FOvercast.No wind85%30.24 "HgN/A
2:00 AM41 °FQuite cool.No wind92%30.24 "HgN/A
12:00 AM39 °FPassing clouds.No wind93%30.23 "HgN/A
Weather by CustomWeather, © 2016

See weather overviewHow to use our weather pages